sat.trackr.live / text

‹ back to catalog

STARLINK-3207

NORAD 49756 · 2021-115AJ

PAYLOAD ACTIVE UNKNOWN

§ Identity

Operator
Country
US
Launch date
2021-12-02
Launch site
AFETR
Launch vehicle
Mass (kg)
RCS (m²)

Purposes: comms

External: N2YO · Heavens-Above · Gunter

§ Orbital elements

Epoch: 2026-05-24T06:24:39.722688Z

Period
95.45 min
Inclination
53.2160°
Eccentricity
0.0001919
Mean motion
15.08705229 rev/d
Perigee alt
538.8 km
Apogee alt
541.5 km
Semi-major
6,918.3 km
B*
-1.1624e-3
RAAN
159.8438°
Arg perigee
79.7168°
Mean anomaly
280.4041°
Rev number
24,708

§ Raw data

STARLINK-32071 49756U 21115AJ  26144.26712642 -.00018672  00000+0 -11624-2 0  99992 49756  53.2160 159.8438 0001919  79.7168 280.4041 15.08705229247085

JSON: /api/v1/satellites/49756 · /tle

For live sub-satellite position, see the globe view (requires WebGL).

§ Visibility from observer

Set your observer location to see the next 7 days of passes ≥ 10°. The values pass through the URL so the page stays shareable.

No JS? Fill the form by hand. The geolocation button needs JavaScript.